Weather in Grebeni

Russia / Orenburg Oblast     51°56′30″N   55°16′45″E
temp.,
°C
wind,
m/s
gust,
m/s
humid.,
%
clouds,
%
prec.,
mm/h
press.,
hPa
HPBL,
m
25 february, thu
thu2523:00−23nnw6148992 0.0 1026462
02:00−24nnw5119026 0.0 1029249
05:00−27nnw489213 0.0 1030119
08:00−29nw34930 0.0 103338
11:00−25nnw35910 0.0 1034187
14:00−22nw22850 0.0 1034241
17:00−21wsw23912 0.0 1034122
20:00−25ssw239797 0.0 103422
26 february, fri
fri2623:00−24s349599 0.0 103392
02:00−23sse4792100 0.0 1031246
05:00−22sse5898100 0.3 1029307
08:00−21se5997100 0.3 1026336
11:00−18sse6995100 0.6 1026492
14:00−15sse6994100 0.5 1023634
17:00−13sse5993100 1.0 1022666
20:00−13sse51095100 0.5 1020424
27 february, sat
sat2723:00−12sse61194100 0.9 1018407
02:00−10sse61194100 0.4 1014423
05:00−8sse81494100 1.5 1010520
08:00−6s81595100 3.6 1005622
11:00−2ssw81395100 7.0 1004612
14:00+1sw510100100 0.7 1002387
17:00+1sw51098100 0.8 1002416
20:000sw5998100 0.2 1002432
28 february, sun
sun2823:000sw4998100 0.4 1003390
02:000sw5996100 0.3 1001501
05:00−1sw4996100 0.4 1002295
08:00−1sw4997100 0.6 1002409
11:00−1sw61093100 0.7 1002637
14:00−1sw61098100 0.4 1003654
17:00−1sw6996100 1.3 1004638
20:00−3sw5995100 0.4 1006344
1 march, mon
mon123:00−9w589396 0.6 1009288
02:00−13w469598 0.3 1011183
05:00−17w349589 0.3 101359
08:00−19w239575 0.0 101521
11:00−16w239272 0.0 1016155
14:00−13wnw238871 0.0 1017315
17:00−13wnw239186 0.0 1018283
20:00−15wnw239593 0.0 101960